Regional Weather Roundup
Issued by NWS

Current Version | Previous Version | Text Only | Print | Product List | Glossary On
Versions: 1 2 3 4 5 6 7 8 9 10 11 12 13 14 15 16 17 18 19 20 21 22 23 24 25 26 27 28 29 30 31 32 33 34 35 36 37 38 39 40 41 42 43 44 45 46 47 48 49 50
000
ASCA42 TJSJ 260310
RWRPR
PUERTO RICO/U.S. VIRGIN ISLANDS HOURLY WEATHER ROUNDUP
NATIONAL WEATHER SERVICE SAN JUAN PR
1100 PM AST TUE JUN 25 2019

PRZ001>002-007>008-010-260400-
PUERTO RICO

CITY           SKY/WX    TMP DP  RH WIND       PRES   REMARKS
SAN JUAN LMM   PTCLDY    82  75  78 E5        30.07R
$$

VIZ001>002-260400-
U.S. VIRGIN ISLANDS

CITY           SKY/WX    TMP DP  RH WIND       PRES   REMARKS
CHARLOTTE AMA  CLEAR     82  75  78 E8        30.06S
CHRISTIANSTED  PTCLDY    79  73  83 NE5       30.06F
$$

HOURLY WEATHER ROUNDUP FOR THE NEWS MEDIA

CITY           SKY/WX    TMP DP  RH WIND       PRES   REMARKS
ORLANDO        FAIR      78  70  76 CALM      30.09R
NEW YORK       MOCLDY    71  71 100 E5        29.89R
NEWARK         FAIR      81  63  54 W8        29.87R
CHICAGO        FAIR      76  61  59 SW6       29.90R
HARTFORD       CLOUDY    68  65  90 SW10      29.90F
BOSTON         LGT RAIN  70  67  90 S7        29.91R FOG
DALLAS         PTCLDY    81  69  67 S16       30.00R
PHILADELPHIA   FAIR      79  61  53 W7        29.91R
LOS ANGELES    CLOUDY    63  57  81 W8        29.91R
WASHINGTON DC  MOCLDY    75  61  61 W5        29.99R


USA.gov is the U.S. government's official web portal to all federal, state and local government web resources and services.